Weather in Pervomayskiy

Russia / Tula Oblast     54°02′11″N   37°30′13″E
temp.,
°C
wind,
m/s
gust,
m/s
humid.,
%
clouds,
%
prec.,
mm/h
press.,
hPa
HPBL,
m
21 april, wed
wed2100:00+1ene5997100 0.2 1009417
03:00+1nne36100100 1.8 1006214
06:00+1nw23100100 0.3 1005146
09:00+2w3599100 0.3 1006355
12:00+3wsw5790100 0.1 1008696
15:00+4wsw5786100 0.1 1010922
18:00+5ssw3683100 0.0 1011255
21:00+4ssw3688100 0.0 1013174
22 april, thu
thu2200:00+4ssw4796100 0.9 1014449
03:00+3ssw499641 1.0 1015279
06:00+3ssw5109586 0.0 1016334
09:00+7sw7118085 0.0 1017705
12:00+9ssw697680 0.0 1017735
15:00+13ssw78625 0.2 10161235
18:00+12ssw6106863 0.8 1016727
21:00+10s5128097 1.7 1017326
23 april, fri
fri2300:00+9s5128553 0.1 1017263
03:00+7s5138464 0.1 1016302
06:00+8s6148099 0.0 1016360
09:00+12s7136787 0.1 1016708
12:00+15s9124979 0.3 10152259
15:00+15s7115586 0.5 10141866
18:00+13s71163100 0.8 10131003
21:00+10sse61377100 1.4 1011454
24 april, sat
sat2400:00+8se3792100 0.9 1010208
03:00+7sw5892100 1.8 1008737
06:00+3nw5899100 3.2 1008446
09:00+2wnw510100100 10.3 1008478
12:00+5wnw5885100 0.9 1009914
15:00+8wnw7105069 1.4 10082333
18:00+7w610584 0.0 10091074
21:00+3wsw4117912 0.1 1011282
25 april, sun
sun2500:00+2wsw49879 0.0 1011201
03:000sw49895 0.0 1011216
06:000sw4108920 0.0 1011312
09:00+5wsw696923 0.0 10111112
12:00+7wsw7852100 0.3 10111894
15:00+8wsw71045100 0.6 10112317
18:00+6wsw8105461 0.3 10111375
21:00+3sw511683 0.3 1012310